Theta_e
321 321 321 321 322 321 321 322 323 324 322 322 322 321 321 321 322 322 322 321 320 321 326 328 329 330 331 332 332 331 330 329 327 326 324 323 323 322 321 319 315 311 310 308
323 320 321 321 321 321 320 320 319 321 321 321 320 320 321 321 320 320 321 321 321 320 322 329 330 331 331 331 331 329 328 326 325 322 322 321 321 319 318 315 310 310 308 307
324 322 320 320 321 320 319 320 320 320 322 321 321 321 321 320 320 320 319 321 322 322 322 331 332 332 330 331 329 328 326 323 320 320 319 318 318 315 312 310 309 306 305 301
324 322 323 321 321 321 320 320 320 320 320 321 321 320 320 320 320 320 322 322 322 323 328 331 331 330 329 327 325 324 320 318 319 318 317 315 311 310 310 308 305 303 302 302
325 324 322 321 321 321 321 321 321 320 320 321 320 320 320 319 319 319 322 322 323 326 327 327 327 327 325 323 322 319 318 317 316 315 313 311 310 307 303 302 303 303 302 300
325 325 326 323 321 320 321 321 321 321 321 322 321 323 321 318 318 322 322 323 324 324 324 323 322 321 320 319 317 315 314 313 311 310 310 308 304 302 303 303 301 300 297 296
322 326 324 321 320 320 323 323 321 321 321 321 321 322 320 318 318 319 319 321 322 322 321 318 317 316 317 316 313 311 307 305 306 306 303 302 302 302 300 299 296 296 295 294
324 325 325 320 320 321 322 321 322 322 321 320 321 319 319 318 318 317 317 318 319 319 318 317 315 313 311 309 307 305 304 303 303 302 301 301 299 298 296 296 295 294 293 292
323 324 324 321 320 320 319 322 321 322 322 320 320 319 318 317 316 315 315 315 316 316 314 313 311 310 309 306 304 303 302 302 301 300 298 298 297 296 295 293 292 291 290 288
323 320 320 321 321 321 321 320 322 321 321 320 321 319 317 316 315 314 314 314 314 313 311 309 308 308 305 304 303 301 300 299 298 296 294 293 293 292 291 290 290 289 288 287
320 319 318 318 319 322 322 321 320 320 320 320 320 318 316 315 314 313 313 312 311 309 308 306 305 304 303 302 301 300 298 296 294 293 291 290 290 289 289 288 287 286 285 285
323 319 320 320 319 321 321 319 319 320 319 319 319 318 315 314 313 312 311 309 308 307 305 303 301 300 300 299 298 296 293 291 291 290 289 288 288 287 286 285 285 284 283 282
318 319 320 322 319 319 319 322 321 320 320 319 318 317 314 313 312 310 309 307 305 302 301 299 297 294 293 293 292 291 291 290 288 287 287 286 286 286 286 286 285 285 283 282
314 314 319 319 319 317 316 317 317 318 318 317 316 314 312 311 309 307 305 304 301 298 295 291 289 289 290 290 290 289 288 287 288 286 285 285 285 285 284 283 284 283 282 282
319 319 319 317 315 314 313 313 313 313 312 312 312 310 309 307 305 303 302 298 294 290 287 288 289 287 286 289 289 288 287 287 286 287 287 283 282 282 281 281 281 281 281 281
314 318 316 315 314 312 311 311 310 309 308 307 307 306 304 302 300 297 294 290 290 291 289 289 289 288 286 286 287 287 288 288 286 284 282 282 282 281 280 280 280 280 279 279
317 315 314 314 312 311 311 309 307 306 305 304 303 302 300 299 295 292 291 291 290 288 288 289 289 288 288 287 286 285 286 285 281 282 281 280 279 279 279 279 278 278 278 277
313 312 313 313 311 308 306 305 304 303 302 301 300 299 297 295 293 291 289 289 288 288 288 288 287 287 285 285 284 282 280 282 281 279 279 278 278 278 277 276 276 276 276 276
308 306 306 306 305 303 301 301 300 299 296 296 296 295 293 291 289 288 288 287 287 287 285 285 285 283 282 281 282 283 281 279 278 277 277 277 276 276 275 275 275 274 273 273
299 298 298 297 298 298 297 296 296 294 293 294 292 290 288 287 287 286 286 286 286 286 285 283 283 283 283 280 278 278 278 277 276 276 275 275 274 274 274 273 273 273 272 271
292 293 293 292 291 290 291 291 291 289 288 289 289 288 287 285 285 286 286 287 284 283 282 281 280 279 278 277 277 277 276 275 274 274 273 273 273 273 272 272 271 271 270 270
288 288 288 288 288 288 288 289 289 288 288 288 287 286 286 285 285 284 283 283 280 278 278 278 278 278 278 277 275 275 274 273 272 272 272 272 271 271 270 270 270 269 269 268
287 287 287 287 287 287 288 288 287 287 286 285 285 284 283 282 282 281 281 279 278 277 277 277 277 276 275 274 273 273 272 272 271 271 271 270 270 269 269 269 268 268 267 267
287 287 286 287 287 287 286 285 285 284 284 283 282 282 282 282 281 280 279 278 277 276 276 275 274 274 273 272 272 271 271 270 270 270 269 269 268 268 268 267 267 267 266 266
286 285 285 285 284 283 283 282 282 281 280 280 280 281 281 280 279 277 276 276 276 274 274 273 272 271 271 270 270 270 269 269 268 268 267 267 267 266 266 266 266 265 265 264
285 284 284 284 283 283 283 282 282 281 280 279 278 278 277 276 276 275 274 274 273 272 272 271 270 270 269 268 268 267 267 267 267 266 266 265 265 264 264 264 264 263 263 263
283 282 282 282 281 281 281 280 279 279 279 277 276 276 275 275 274 274 273 272 271 271 270 270 269 268 268 267 267 266 266 265 265 265 264 264 263 263 262 262 262 262 263 262
Wind_Speed
19 19 18 18 20 19 20 16 16 12 17 15 13 11 1 8 20 8 5 8 7 10 15 17 14 15 18 19 24 28 32 36 31 29 25 28 26 23 23 22 21 16 9 15
18 19 21 18 18 19 20 19 19 16 17 14 16 16 11 13 8 10 8 7 4 2 8 17 18 16 20 24 27 31 28 25 23 21 25 25 24 24 19 23 20 11 12 15
15 18 18 18 16 13 12 13 11 13 11 9 10 11 10 7 3 7 11 5 4 5 7 15 20 23 26 29 28 26 21 18 17 21 23 23 22 21 23 22 16 14 13 12
8 2 22 10 11 14 11 12 14 14 10 10 13 17 13 1 1 5 4 5 6 7 9 15 20 23 24 24 22 23 18 16 17 21 24 25 23 22 20 18 16 13 10 14
6 12 12 17 9 6 8 13 12 12 13 14 15 1 6 3 6 5 9 9 10 12 14 18 19 18 18 20 19 16 17 17 20 22 27 24 21 19 17 15 11 14 14 11
3 5 10 7 10 3 9 12 13 14 12 9 12 2 1 2 7 11 12 12 14 17 18 16 15 15 16 19 19 18 18 20 23 25 25 20 18 18 12 12 12 11 12 15
9 5 4 8 13 19 15 6 17 12 7 3 2 5 11 9 10 10 13 14 16 18 15 12 14 16 16 18 19 18 21 22 22 19 17 16 13 13 14 13 15 18 20 17
6 4 11 4 5 15 6 18 12 17 8 6 7 9 12 12 14 16 16 18 18 18 19 19 19 18 20 20 21 23 21 21 21 19 16 15 16 15 14 14 16 16 15 14
6 5 4 10 13 17 14 10 13 8 5 7 12 13 13 17 18 18 18 18 17 18 19 17 16 17 21 22 23 23 23 20 20 20 16 15 13 12 12 11 11 13 13 11
7 9 11 12 20 21 12 10 6 5 4 6 12 15 16 18 18 20 19 19 19 21 20 19 18 19 21 22 22 21 20 19 17 16 14 14 13 13 12 13 12 12 10 12
10 9 16 19 26 21 12 7 8 8 9 10 15 17 19 19 19 19 20 20 20 20 22 20 20 18 17 19 19 20 19 17 17 17 14 14 13 10 9 9 9 11 13 15
2 7 8 10 16 10 12 20 28 15 13 11 14 15 18 19 20 21 20 20 21 21 21 20 19 17 15 14 16 16 16 15 13 12 10 7 6 6 7 8 10 12 13 14
7 7 4 3 3 3 5 2 4 9 11 9 8 12 16 16 18 19 20 20 21 22 21 21 21 19 17 17 18 16 14 9 7 5 5 5 6 5 6 9 12 14 15 15
19 18 5 3 4 3 1 3 3 1 2 4 7 10 15 17 18 19 17 18 21 24 24 22 19 15 14 13 12 9 8 6 5 5 4 3 7 9 9 10 12 13 15 16
3 2 3 3 3 3 2 4 7 9 8 10 11 15 18 21 21 20 22 24 25 24 21 17 15 18 15 11 8 6 3 1 3 7 9 9 9 10 12 12 13 13 13 12
18 8 5 5 5 4 5 8 11 11 13 14 16 19 23 27 30 29 27 26 22 15 15 17 17 16 14 9 6 4 4 4 6 8 8 10 12 12 12 11 13 14 13 14
11 7 6 7 7 7 9 9 13 17 21 23 27 27 28 30 29 26 23 17 14 17 17 13 12 10 8 6 3 0 5 6 7 9 11 12 12 13 13 13 12 14 15 17
12 11 9 12 14 16 18 20 21 22 24 25 27 26 26 24 23 19 17 18 19 17 13 9 7 5 4 2 3 5 6 9 12 11 12 12 14 15 14 15 14 14 16 17
17 18 18 20 18 17 19 20 19 18 20 24 25 24 20 20 22 23 21 17 14 11 9 6 5 5 4 3 7 10 10 10 10 11 13 15 14 12 14 15 14 17 18 18
18 18 18 21 20 19 23 20 20 23 21 20 22 26 29 28 25 21 16 13 10 8 6 4 3 4 6 6 7 9 10 10 11 12 11 14 13 12 16 13 14 16 18 19
22 22 24 26 29 28 27 25 26 27 26 26 28 29 26 22 17 13 10 8 8 6 5 4 4 5 5 8 9 11 11 11 11 12 12 13 14 14 15 16 17 18 18 19
31 32 34 34 34 34 30 29 30 31 29 27 25 22 20 17 12 10 9 8 7 6 4 4 5 8 10 10 10 11 12 11 13 13 14 14 15 16 17 17 18 19 20 21
36 37 37 38 39 39 36 33 31 29 27 24 21 18 17 15 11 8 9 7 6 5 4 8 11 12 12 12 11 12 13 14 13 14 16 16 16 17 18 17 18 19 20 20
38 38 38 36 35 34 33 28 26 24 23 21 19 16 13 11 10 8 6 3 4 3 7 11 15 15 13 12 13 14 15 15 15 14 16 20 17 15 16 18 18 19 20 22
35 33 32 30 31 29 26 22 22 20 18 17 15 12 11 10 8 6 6 6 5 6 10 16 17 19 13 9 11 13 15 15 16 19 16 16 19 18 16 17 18 20 22 23
32 31 29 28 26 23 21 20 20 16 14 15 14 13 11 11 9 9 9 9 10 10 10 10 15 14 15 15 18 15 15 16 16 16 18 19 19 16 18 19 19 20 21 22
28 27 26 25 22 20 17 15 16 18 14 11 11 9 9 9 8 7 5 8 8 7 9 10 12 14 14 17 15 17 18 15 16 18 18 18 17 18 18 19 20 21 22 21
Wind_Direction
237 246 230 211 218 229 252 254 245 246 255 263 272 291 299 226 216 222 269 197 230 237 203 194 199 202 202 213 212 217 219 220 222 214 215 210 210 211 212 212 206 196 213 203
244 231 254 264 244 216 217 236 258 257 257 263 268 266 207 261 272 279 265 259 346 327 242 190 177 178 194 202 211 217 208 199 209 205 203 193 203 197 200 194 193 210 200 203
240 242 250 246 241 259 236 246 257 264 275 271 285 274 292 309 318 323 282 166 203 249 256 166 172 190 202 205 209 208 213 211 213 205 202 196 188 186 177 186 202 191 192 193
226 187 240 262 260 251 260 276 286 287 268 259 261 275 289 29 235 273 217 209 198 195 184 180 191 203 194 201 207 218 230 221 201 197 194 180 173 176 182 186 187 187 191 210
243 233 263 233 216 236 236 256 257 274 268 269 275 30 282 289 199 206 199 189 183 173 182 187 193 199 219 218 228 215 200 201 195 187 177 175 172 175 175 172 185 200 213 215
297 201 231 239 248 213 243 257 254 256 257 273 268 194 43 148 170 167 161 165 162 161 186 190 193 206 203 192 192 196 194 179 170 170 178 178 176 169 184 183 198 189 196 207
236 244 271 227 222 210 226 233 259 307 310 6 339 71 142 189 175 173 168 165 162 162 166 176 170 172 176 177 175 164 160 167 172 166 154 163 172 177 183 182 195 206 217 225
221 225 235 357 0 204 217 235 256 274 263 307 129 154 163 168 168 168 168 166 165 161 159 161 164 164 157 154 158 168 169 149 150 167 166 173 179 184 185 200 216 230 242 252
221 207 335 212 239 279 245 273 293 304 294 224 174 180 181 176 175 175 174 167 166 164 159 160 160 156 157 161 159 157 159 160 164 173 171 180 173 185 181 202 223 243 259 266
192 240 271 265 325 269 260 285 280 283 251 196 194 201 192 184 184 179 175 172 167 163 158 156 157 164 166 160 161 161 160 166 170 170 167 169 186 200 203 211 228 244 259 261
235 233 215 240 226 210 237 273 266 249 249 223 201 200 193 187 186 181 175 168 165 159 156 153 154 152 153 158 162 165 165 165 171 171 180 175 191 216 230 245 252 249 254 264
233 227 240 263 272 245 250 251 251 239 240 250 221 206 194 187 181 176 169 164 158 154 146 143 143 142 146 157 172 165 156 162 178 180 182 192 222 234 264 272 277 279 277 277
264 252 249 275 324 271 258 336 247 219 238 239 222 207 189 179 174 169 161 157 149 145 143 141 144 144 149 152 154 164 170 170 168 165 193 208 203 239 290 295 298 302 306 303
277 252 220 265 76 333 36 242 262 176 172 207 190 175 168 159 156 147 147 146 146 144 144 145 137 138 154 155 163 144 147 169 213 206 225 256 285 277 268 261 274 293 302 307
136 101 126 160 86 60 61 86 95 91 101 109 129 138 153 142 131 137 144 147 146 138 131 136 146 135 133 142 150 146 161 228 287 305 293 278 276 285 287 281 282 285 284 295
251 158 127 100 111 95 92 105 114 107 111 116 123 128 131 143 144 140 137 143 138 143 158 150 143 139 125 135 156 172 231 280 288 285 292 301 296 288 289 283 283 290 288 278
127 120 140 143 136 125 112 112 118 120 126 139 142 151 153 150 143 139 144 158 156 143 137 135 136 142 157 165 158 279 309 296 289 300 290 288 293 289 283 285 285 283 287 289
92 91 104 138 131 125 122 129 136 143 143 145 150 154 149 149 143 145 146 143 137 133 136 138 134 120 96 50 330 313 301 301 298 292 294 289 286 293 295 291 292 285 281 278
94 97 114 124 132 132 126 126 128 132 137 140 144 138 137 136 133 130 130 131 129 126 115 112 85 60 27 338 302 306 308 298 298 296 296 295 300 294 290 291 288 285 294 296
106 116 123 121 119 123 123 122 124 124 128 135 131 127 125 126 130 130 134 127 119 118 102 74 33 348 342 339 319 315 316 316 313 310 308 309 320 300 296 309 298 296 294 296
108 114 114 113 110 111 112 117 119 116 120 125 127 123 118 115 114 113 112 108 97 80 61 31 360 349 354 341 330 323 322 324 317 314 307 307 306 305 300 296 295 295 297 294
108 108 109 110 109 108 111 113 115 119 119 116 113 113 112 106 101 96 85 76 83 64 30 344 353 336 335 339 327 325 323 320 316 319 315 308 304 303 301 299 298 297 296 297
109 109 110 111 111 112 113 113 113 113 110 107 103 99 97 94 84 71 73 63 63 86 293 325 331 336 337 341 336 331 325 323 320 310 311 303 297 302 306 306 301 302 303 302
107 109 108 110 111 108 102 101 102 99 99 98 97 94 78 75 86 78 84 74 37 359 333 333 335 336 343 351 332 324 321 320 319 310 294 299 309 302 299 303 304 301 300 296
99 99 99 98 93 91 93 94 92 90 89 85 82 83 98 104 87 71 31 37 74 52 357 338 339 343 352 335 307 305 318 320 313 315 316 301 301 304 301 299 299 299 298 301
101 97 96 97 98 101 104 102 92 83 81 81 74 66 65 64 54 36 22 23 9 6 354 340 337 340 337 329 335 340 324 318 315 307 302 305 310 310 302 301 300 298 295 294
98 101 106 105 105 108 108 108 113 103 89 71 76 72 74 59 49 44 19 354 358 342 336 340 332 335 332 333 334 322 321 318 309 308 311 307 309 308 307 303 300 302 305 309